EW2093 Weather Reports


time (UTC)temp
F
wind
direction
speed
knots
gust
knots
rain 1hr
in
rain 24hr
in
rain mn
in
humidity
%
barometer
mb
20260506164031 54 309 2.6 7.8 0.00 0.04 0.01 80 1014.3
20260506163533 54 24 3.5 8.7 0.00 0.04 0.01 80 1014.4
20260506163034 54 24 5.2 8.7 0.00 0.04 0.01 80 1014.3
20260506162535 54 34 4.3 7.8 0.00 0.04 0.01 81 1014.3
20260506162034 54 2 3.5 7.8 0.00 0.04 0.01 81 1014.4
20260506161536 53 7 3.5 9.6 0.00 0.04 0.01 82 1014.4
20260506161034 53 60 5.2 11.3 0.00 0.04 0.01 81 1014.5
20260506160534 54 68 7.0 11.3 0.00 0.04 0.01 80 1014.5
20260506160037 54 12 3.5 8.7 0.00 0.04 0.01 78 1014.5
20260506155556 54 43 4.3 8.7 0.00 0.08 0.01 78 1014.5
20260506155055 55 350 5.2 7.8 0.00 0.08 0.01 78 1014.5
20260506154534 55 26 3.5 7.0 0.00 0.08 0.01 79 1014.7
20260506154034 54 38 2.6 7.0 0.00 0.08 0.01 80 1014.7
20260506153601 54 56 3.5 7.0 0.00 0.08 0.01 80 1014.7
20260506153040 54 309 1.7 6.1 0.00 0.08 0.01 81 1014.8
20260506152520 54 36 2.6 6.1 0.00 0.08 0.01 80 1014.8
20260506152020 54 288 3.5 6.1 0.00 0.08 0.01 80 1014.7
20260506151537 54 12 3.5 7.8 0.00 0.08 0.01 79 1014.7
20260506151038 54 340 3.5 7.8 0.00 0.08 0.01 79 1014.8
20260506150538 54 316 2.6 7.8 0.00 0.08 0.01 79 1014.8
20260506150039 54 333 2.6 6.1 0.00 0.08 0.01 80 1014.8
20260506145539 54 7 2.6 10.4 0.00 0.08 0.01 79 1014.8
20260506145031 54 298 3.5 10.4 0.00 0.08 0.01 78 1014.9
20260506144600 55 347 4.3 8.7 0.00 0.08 0.01 78 1014.8
20260506144041 55 337 4.3 13.0 0.00 0.08 0.01 79 1014.9
20260506143540 55 20 5.2 13.0 0.00 0.08 0.01 81 1015.0
20260506143040 54 348 4.3 10.4 0.00 0.08 0.01 79 1015.0
20260506142540 55 330 2.6 7.0 0.00 0.08 0.01 79 1015.0
20260506142019 55 7 2.6 10.4 0.00 0.08 0.01 76 1015.0
20260506141520 56 29 3.5 7.0 0.00 0.08 0.01 73 1015.0
20260506141052 56 350 3.5 7.0 0.00 0.08 0.01 72 1014.9
20260506140552 56 351 2.6 6.1 0.00 0.08 0.01 71 1014.9
20260506140030 56 302 2.6 4.3 0.00 0.08 0.01 72 1015.0
20260506135530 56 301 1.7 3.5 0.00 0.08 0.01 73 1015.0
20260506135032 55 299 1.7 6.1 0.00 0.08 0.01 75 1015.1
20260506134533 55 283 1.7 3.5 0.00 0.08 0.01 75 1015.1
20260506134035 55 297 1.7 3.5 0.00 0.08 0.01 74 1015.1
20260506133536 55 301 1.7 5.2 0.00 0.08 0.01 76 1015.1
20260506133059 55 323 1.7 4.3 0.00 0.08 0.01 77 1015.0
20260506132537 55 305 2.6 4.3 0.00 0.08 0.01 76 1015.1
20260506132019 55 298 2.6 4.3 0.00 0.08 0.01 78 1015.2
20260506131520 54 283 1.7 4.3 0.00 0.08 0.01 78 1015.1
20260506131050 54 307 2.6 7.0 0.00 0.08 0.01 77 1015.1
20260506130530 54 312 2.6 7.0 0.00 0.08 0.01 77 1015.1
20260506130030 54 308 2.6 6.1 0.00 0.08 0.01 78 1015.1
20260506125531 54 292 3.5 6.1 0.00 0.28 0.01 77 1015.1
20260506125052 54 349 2.6 6.1 0.00 0.28 0.01 76 1015.0
20260506124530 54 337 3.5 7.0 0.00 0.28 0.01 76 1015.0
20260506124027 55 311 3.5 7.8 0.00 0.28 0.01 76 1015.0
20260506123529 55 12 3.5 9.6 0.00 0.28 0.01 75 1015.0
20260506123030 55 315 4.3 9.6 0.00 0.28 0.01 73 1014.9
20260506122531 56 304 4.3 8.7 0.00 0.28 0.01 72 1014.9
20260506122031 56 284 2.6 5.2 0.00 0.28 0.01 71 1014.9
20260506121532 56 293 2.6 6.1 0.00 0.28 0.01 70 1014.9
20260506121032 56 281 2.6 4.3 0.00 0.28 0.01 73 1014.8
20260506120533 55 296 1.7 4.3 0.00 0.28 0.01 73 1014.8
20260506120121 55 304 1.7 5.2 0.00 0.28 0.01 73 1014.9
20260506115557 55 297 2.6 5.2 0.00 0.39 0.01 73 1014.9
20260506115038 55 303 1.7 6.1 0.00 0.39 0.01 73 1014.9
20260506114520 55 289 2.6 6.1 0.00 0.39 0.01 72 1014.8
20260506114019 56 304 1.7 5.2 0.00 0.39 0.01 71 1014.9
20260506113534 56 305 2.6 5.2 0.00 0.39 0.01 71 1014.8
20260506113018 56 283 1.7 7.0 0.00 0.39 0.01 71 1014.8
20260506112519 56 284 3.5 7.0 0.00 0.39 0.01 70 1014.9
20260506112020 56 328 1.7 4.3 0.00 0.39 0.01 70 1014.9
20260506111520 56 287 1.7 6.1 0.00 0.39 0.01 70 1014.8
20260506111020 56 30 1.7 6.1 0.00 0.39 0.01 70 1014.9
20260506110558 56 44 1.7 7.0 0.00 0.39 0.01 70 1014.9
20260506110019 56 51 2.6 7.0 0.00 0.39 0.01 70 1014.9
20260506105519 56 307 0.9 6.1 0.00 0.55 0.01 71 1014.9
20260506105059 56 315 2.6 6.1 0.00 0.55 0.01 70 1014.9
20260506104521 56 257 2.6 5.2 0.00 0.55 0.01 70 1014.8
20260506104043 56 290 2.6 6.1 0.00 0.55 0.01 69 1014.8
20260506103519 56 285 2.6 8.7 0.00 0.55 0.01 69 1014.8
20260506103021 56 281 4.3 8.7 0.00 0.55 0.01 69 1014.8
20260506102520 56 309 2.6 7.0 0.00 0.55 0.01 70 1014.8
20260506102051 55 286 1.7 8.7 0.00 0.55 0.01 69 1014.8
20260506101529 55 7 5.2 8.7 0.00 0.55 0.01 69 1014.8
20260506101046 55 291 5.2 7.0 0.00 0.55 0.01 70 1014.9
20260506100529 55 291 4.3 8.7 0.00 0.55 0.01 70 1014.9
20260506100030 55 291 5.2 8.7 0.00 0.55 0.01 69 1014.9
20260506095532 55 307 3.5 7.0 0.00 0.55 0.01 68 1014.9
20260506095033 56 320 2.6 7.0 0.00 0.55 0.01 69 1014.8
20260506094556 56 309 3.5 7.8 0.00 0.55 0.01 68 1014.8
20260506094036 56 305 5.2 7.8 0.00 0.55 0.01 70 1014.9
20260506093537 56 300 2.6 6.1 0.00 0.55 0.01 72 1014.9
20260506093058 56 296 1.7 3.5 0.00 0.55 0.01 75 1014.9
20260506092538 55 274 1.7 4.3 0.00 0.55 0.01 75 1014.9
20260506092019 55 286 2.6 4.3 0.00 0.55 0.01 75 1014.9
20260506091521 55 272 2.6 4.3 0.00 0.55 0.01 76 1014.8
20260506091024 54 280 0.9 5.2 0.00 0.55 0.01 79 1014.9
20260506090518 54 311 2.6 5.2 0.00 0.55 0.01 77 1014.8
20260506090019 54 317 2.6 6.1 0.00 0.55 0.01 78 1014.9
20260506085521 54 317 0.9 4.3 0.00 0.55 0.01 83 1014.9
20260506085023 53 133 1.7 3.5 0.00 0.55 0.01 83 1014.9
20260506084525 52 21 1.7 2.6 0.00 0.55 0.01 84 1014.9
20260506084025 51 20 0.9 2.6 0.00 0.55 0.01 85 1014.9
20260506083525 51 20 0.9 2.6 0.00 0.55 0.01 86 1014.9
20260506083032 51 16 0.9 2.6 0.00 0.55 0.01 86 1014.9
20260506082551 50 12 0.9 2.6 0.00 0.55 0.01 86 1014.9
20260506082031 50 12 1.7 2.6 0.00 0.55 0.01 87 1014.9
20260506081532 50 24 1.7 2.6 0.00 0.55 0.01 88 1014.9
20260506081032 50 295 0.9 1.7 0.00 0.55 0.01 89 1014.9
20260506080534 49 295 0.0 1.7 0.00 0.55 0.01 89 1014.9
20260506073036 47 65 0.9 1.7 0.04 0.55 0.01 93 1014.8
20260506072537 47 65 0.9 1.7 0.04 0.55 0.01 93 1014.8
20260506072037 46 65 0.9 1.7 0.04 0.55 0.01 94 1014.8
20260506071559 46 65 0.9 1.7 0.04 0.55 0.01 94 1014.7
20260506071019 46 65 0.9 2.6 0.04 0.55 0.01 94 1014.8
20260506070521 46 70 0.9 2.6 0.04 0.55 0.01 94 1014.7
20260506062030 44 146 0.0 0.0 0.00 0.51 0.00 95 1014.6
20260506061531 44 146 0.0 0.0 0.00 0.51 0.00 95 1014.6
20260506061032 44 146 0.0 0.0 0.00 0.51 0.00 95 1014.6
20260506060533 44 147 0.0 1.7 0.00 0.51 0.00 95 1014.7
20260506051041 43 237 0.0 1.7 0.00 0.51 0.00 95 1014.2
20260506050534 43 237 0.0 1.7 0.00 0.51 0.00 95 1014.2
20260506045041 43 242 0.0 1.7 0.00 0.55 0.00 95 1014.2
20260506044533 43 242 0.9 2.6 0.00 0.55 0.00 95 1014.2
20260506044041 43 242 0.9 2.6 0.00 0.55 0.00 95 1014.3
20260506043535 43 241 0.9 2.6 0.00 0.55 0.00 95 1014.3
20260506043055 43 235 0.9 1.7 0.00 0.55 0.00 95 1014.2
20260506042535 43 233 0.9 1.7 0.00 0.55 0.00 95 1014.2
20260506042036 43 213 0.9 1.7 0.00 0.55 0.00 95 1014.2
20260506041518 43 212 0.9 1.7 0.00 0.55 0.00 95 1014.3
20260506041058 43 212 0.0 0.9 0.00 0.55 0.00 95 1014.2
20260506040519 43 211 0.0 0.0 0.00 0.55 0.00 95 1014.2
20260506040039 43 211 0.0 1.7 0.00 0.55 0.00 95 1014.2
20260506035533 43 211 0.0 1.7 0.00 0.59 0.00 95 1014.2
20260506035043 43 211 0.9 1.7 0.00 0.59 0.00 95 1014.2
20260506034543 43 209 0.0 0.9 0.00 0.59 0.00 94 1014.2
20260506034019 43 210 0.0 0.9 0.00 0.59 0.00 94 1014.2
20260506033522 43 210 0.0 0.9 0.00 0.59 0.00 95 1014.2
20260506033022 43 210 0.0 0.9 0.00 0.59 0.00 95 1014.2
20260506032521 43 210 0.0 0.9 0.00 0.59 0.00 95 1014.2
20260506032043 43 210 0.0 0.0 0.00 0.59 0.00 95 1014.3
20260506031523 43 210 0.0 0.9 0.00 0.59 0.00 95 1014.3
20260506031025 43 210 0.0 0.9 0.00 0.59 0.00 95 1014.3
20260506030534 43 210 0.9 0.9 0.00 0.59 0.00 95 1014.4
20260506030034 43 210 0.0 0.9 0.00 0.59 0.00 95 1014.4
20260506025555 43 210 0.0 0.0 0.00 0.59 0.00 94 1014.3
20260506025035 43 210 0.0 0.0 0.00 0.59 0.00 94 1014.3
20260506024536 43 210 0.0 0.0 0.00 0.59 0.00 94 1014.3
20260506024034 43 210 0.0 0.9 0.00 0.59 0.00 95 1014.3
20260506023537 43 210 0.0 0.9 0.00 0.59 0.00 95 1014.2
20260506023038 43 210 0.0 0.9 0.00 0.59 0.00 94 1014.3
20260506022519 43 210 0.0 1.7 0.00 0.59 0.00 94 1014.2
20260506022023 43 210 0.0 0.9 0.00 0.59 0.00 94 1014.2
20260506021544 43 210 0.0 0.9 0.00 0.59 0.00 94 1014.3
20260506021024 43 210 0.0 0.9 0.00 0.59 0.00 94 1014.3
20260506020526 43 210 0.0 0.9 0.00 0.59 0.00 94 1014.3
20260506020054 43 210 0.0 0.9 0.00 0.59 0.00 94 1014.3
20260506015555 43 210 0.0 0.0 0.00 0.59 0.00 94 1014.3
20260506015033 43 210 0.0 0.0 0.00 0.59 0.00 94 1014.4
20260506014534 43 210 0.0 1.7 0.00 0.59 0.00 94 1014.4
20260506014034 44 210 0.9 1.7 0.00 0.59 0.00 94 1014.4
20260506013533 44 210 0.0 0.0 0.00 0.59 0.00 94 1014.4
20260506013034 44 210 0.0 0.9 0.00 0.59 0.00 94 1014.4
20260506012535 44 210 0.0 0.9 0.00 0.59 0.00 94 1014.4
20260506012018 44 210 0.0 0.0 0.00 0.59 0.00 94 1014.4
20260506011519 44 210 0.0 0.0 0.00 0.59 0.00 94 1014.5
20260506011020 44 210 0.0 0.9 0.00 0.59 0.00 94 1014.6
20260506010521 44 210 0.0 0.9 0.00 0.59 0.00 94 1014.7
20260506010042 44 210 0.0 0.0 0.00 0.59 0.00 94 1014.7
20260506005523 44 210 0.0 0.0 0.00 0.59 0.00 94 1014.7
20260506005041 43 210 0.0 0.0 0.00 0.59 0.00 94 1014.8
20260506004520 43 210 0.0 0.0 0.00 0.59 0.00 94 1014.8
20260506004021 43 210 0.0 0.0 0.00 0.59 0.00 94 1014.9
20260506003523 43 210 0.0 0.9 0.00 0.59 0.00 94 1015.0
20260506003026 43 210 0.0 0.9 0.00 0.59 0.00 94 1015.0
20260506002554 43 210 0.0 0.9 0.00 0.59 0.00 94 1015.1
20260506002054 43 210 0.0 1.7 0.00 0.59 0.00 94 1015.0
20260506001549 43 210 0.9 1.7 0.00 0.59 0.00 94 1015.1
20260506001030 43 210 0.0 0.9 0.00 0.59 0.00 94 1015.1
20260506000533 43 210 0.0 0.9 0.00 0.59 0.00 94 1015.1
20260506000019 43 210 0.0 0.9 0.00 0.59 0.00 94 1015.1
20260505235522 43 210 0.0 0.9 0.00 0.59 0.00 94 1015.0
20260505235023 43 210 0.0 0.9 0.00 0.59 0.00 94 1015.0
20260505234543 43 210 0.0 0.9 0.00 0.59 0.00 93 1015.0
20260505234022 43 210 0.0 0.9 0.00 0.59 0.00 93 1014.9
20260505233525 43 210 0.0 0.9 0.00 0.59 0.00 93 1014.9
20260505233019 43 210 0.9 0.9 0.00 0.59 0.00 93 1015.0
20260505232519 43 210 0.0 0.9 0.00 0.59 0.00 93 1015.1
20260505232022 43 210 0.0 0.0 0.00 0.59 0.00 93 1015.1
20260505231526 43 210 0.0 0.0 0.00 0.59 0.00 93 1015.1
20260505231027 43 210 0.0 1.7 0.00 0.59 0.00 92 1015.1
20260505230529 43 210 0.9 1.7 0.00 0.59 0.00 92 1015.1
20260505230024 43 214 0.0 0.9 0.00 0.59 0.00 92 1015.1
20260505225525 44 214 0.0 0.9 0.00 0.59 0.00 92 1015.1
20260505225028 44 214 0.0 0.9 0.00 0.59 0.00 92 1015.1
20260505224550 44 214 0.0 1.7 0.00 0.59 0.00 92 1015.1
20260505224032 44 214 0.9 2.6 0.00 0.59 0.00 92 1015.1
20260505223533 44 214 1.7 4.3 0.00 0.59 0.00 92 1015.1
20260505223033 44 212 2.6 4.3 0.00 0.59 0.00 92 1015.2
20260505222603 44 220 0.9 1.7 0.00 0.59 0.00 92 1015.2
20260505222042 44 220 0.0 3.5 0.00 0.59 0.00 92 1015.2
20260505221534 44 220 0.0 3.5 0.00 0.59 0.00 92 1015.2
20260505221035 45 227 1.7 3.5 0.00 0.59 0.00 92 1015.3
20260505220537 45 288 0.0 1.7 0.00 0.59 0.00 92 1015.3
20260505220039 45 288 0.0 1.7 0.00 0.59 0.00 92 1015.3
20260505215521 45 288 1.7 1.7 0.00 0.59 0.12 92 1015.3
20260505215041 45 289 0.0 1.7 0.00 0.59 0.12 92 1015.3
20260505214525 45 289 0.0 1.7 0.00 0.59 0.12 92 1015.3
20260505214028 46 289 0.9 1.7 0.00 0.59 0.12 91 1015.4
20260505213519 46 289 0.0 1.7 0.00 0.59 0.12 92 1015.4
20260505213021 46 289 0.0 1.7 0.00 0.59 0.12 91 1015.4
20260505212520 46 289 0.0 0.9 0.00 0.59 0.12 91 1015.4
20260505212022 46 289 0.0 0.0 0.00 0.59 0.12 91 1015.4
20260505211526 46 289 0.0 0.9 0.00 0.59 0.12 91 1015.4
20260505211025 47 289 0.0 1.7 0.00 0.59 0.12 91 1015.4
20260505210554 47 289 0.0 1.7 0.00 0.59 0.12 91 1015.3
20260505210033 47 289 0.9 1.7 0.00 0.59 0.12 91 1015.4
20260505205536 47 289 0.9 1.7 0.00 0.59 0.12 91 1015.3
20260505205037 47 289 0.0 0.9 0.00 0.59 0.12 91 1015.4
20260505204559 47 289 0.0 1.7 0.00 0.59 0.12 91 1015.4
20260505204020 47 289 0.9 2.6 0.00 0.59 0.12 91 1015.3
20260505203521 47 289 0.9 2.6 0.00 0.59 0.12 91 1015.3
20260505203021 47 290 0.9 3.5 0.00 0.59 0.12 91 1015.3
20260505202521 47 294 1.7 3.5 0.00 0.59 0.12 91 1015.2
20260505202021 47 297 1.7 3.5 0.00 0.59 0.12 91 1015.2
20260505201521 47 244 1.7 2.6 0.00 0.59 0.12 91 1015.2
20260505201045 47 231 0.9 1.7 0.00 0.59 0.12 91 1015.1
20260505200546 47 231 0.9 1.7 0.00 0.59 0.12 91 1015.1
20260505200025 47 230 0.9 0.9 0.00 0.59 0.12 91 1015.1
20260505195524 47 230 0.0 1.7 0.00 0.59 0.12 91 1015.1
20260505195025 47 230 0.0 1.7 0.00 0.59 0.12 91 1015.0
20260505194526 48 230 0.9 1.7 0.00 0.59 0.12 91 1015.0
20260505194023 48 230 0.0 0.9 0.00 0.59 0.12 91 1015.0
20260505193525 48 230 0.9 1.7 0.00 0.59 0.12 91 1015.0
20260505193048 48 230 0.9 1.7 0.00 0.59 0.12 90 1014.9
20260505192527 48 230 0.0 1.7 0.00 0.59 0.12 90 1014.8
20260505192059 48 230 0.0 1.7 0.00 0.59 0.12 90 1014.8
20260505191520 48 230 0.0 0.9 0.00 0.59 0.12 90 1014.9
20260505191023 48 230 0.9 2.6 0.00 0.59 0.12 90 1014.8
20260505190545 48 230 1.7 3.5 0.00 0.59 0.12 89 1014.7
20260505190025 48 225 1.7 2.6 0.00 0.59 0.12 89 1014.7
20260505185524 48 249 0.9 2.6 0.00 0.59 0.12 89 1014.7
20260505185024 49 251 1.7 2.6 0.00 0.59 0.12 88 1014.7
20260505184524 49 234 1.7 2.6 0.00 0.59 0.12 88 1014.7
20260505184047 49 279 0.9 1.7 0.00 0.59 0.12 88 1014.6
20260505183506 49 280 0.9 2.6 0.00 0.59 0.12 88 1014.6
20260505181415 49 301 1.7 3.5 0.00 0.59 0.12 87 1014.5
20260505180915 49 300 1.7 3.5 0.00 0.59 0.12 87 1014.5
20260505180414 49 309 1.7 2.6 0.00 0.59 0.12 86 1014.4
20260505175915 49 313 1.7 4.3 0.00 0.59 0.12 86 1014.4
20260505175450 49 349 2.6 4.3 0.00 0.59 0.12 86 1014.4
20260505174928 50 294 2.6 5.2 0.00 0.59 0.12 85 1014.4
20260505174427 50 342 2.6 10.4 0.00 0.59 0.12 85 1014.4
20260505173945 50 300 2.6 10.4 0.00 0.59 0.12 84 1014.3
20260505173441 51 292 4.3 10.4 0.00 0.59 0.12 83 1014.4
20260505172917 51 318 4.3 10.4 0.00 0.59 0.12 83 1014.3
20260505172443 52 288 4.3 7.0 0.00 0.59 0.12 84 1014.4
20260505171921 52 304 1.7 4.3 0.00 0.59 0.12 85 1014.4
20260505171420 52 295 1.7 3.5 0.00 0.59 0.12 84 1014.5
20260505170919 52 285 2.6 3.5 0.00 0.59 0.12 84 1014.5
20260505170437 52 289 1.7 3.5 0.00 0.59 0.12 83 1014.5
20260505165933 52 297 1.7 3.5 0.00 0.59 0.12 82 1014.4
20260505165423 52 297 1.7 3.5 0.00 0.59 0.12 81 1014.5
20260505164920 52 313 1.7 2.6 0.00 0.59 0.12 81 1014.4
20260505164419 52 321 0.9 1.7 0.00 0.59 0.12 81 1014.4